QPF
0.00 0.00 0.00 0.00 0.00 0.00 0.00 0.00 0.00 0.00 0.00 0.00 0.00 0.00 0.00 0.00 0.00 0.00 0.00 0.00 0.00 0.00 0.00 0.00 0.00 0.00 0.00 0.00 0.00 0.00 0.00 0.00 0.00 0.00 0.00 0.00 0.00 0.00 0.00 0.00 0.00 0.00 0.00 0.00 0.00 0.00 0.00
0.00 0.00 0.00 0.00 0.00 0.00 0.00 0.00 0.00 0.00 0.00 0.00 0.00 0.00 0.00 0.00 0.00 0.00 0.00 0.00 0.00 0.00 0.00 0.00 0.00 0.00 0.00 0.00 0.00 0.00 0.00 0.00 0.00 0.00 0.00 0.00 0.00 0.00 0.00 0.00 0.00 0.00 0.00 0.00 0.00 0.00 0.00
0.00 0.00 0.00 0.00 0.00 0.00 0.00 0.00 0.00 0.00 0.00 0.00 0.00 0.00 0.00 0.00 0.00 0.00 0.00 0.00 0.00 0.00 0.00 0.00 0.00 0.00 0.00 0.00 0.00 0.00 0.00 0.00 0.00 0.00 0.00 0.00 0.00 0.00 0.00 0.00 0.00 0.00 0.00 0.00 0.00 0.00 0.00
0.00 0.00 0.00 0.00 0.00 0.00 0.00 0.00 0.00 0.00 0.00 0.00 0.00 0.00 0.00 0.00 0.00 0.00 0.00 0.00 0.00 0.00 0.00 0.00 0.00 0.00 0.00 0.00 0.00 0.00 0.00 0.00 0.00 0.00 0.00 0.00 0.00 0.00 0.00 0.00 0.00 0.00 0.00 0.00 0.00 0.00 0.00
0.00 0.00 0.00 0.00 0.00 0.00 0.00 0.00 0.00 0.00 0.00 0.00 0.00 0.00 0.00 0.00 0.00 0.00 0.00 0.00 0.00 0.00 0.00 0.00 0.00 0.00 0.00 0.00 0.00 0.00 0.00 0.00 0.00 0.00 0.00 0.00 0.00 0.00 0.00 0.00 0.00 0.00 0.00 0.00 0.00 0.00 0.00
0.00 0.00 0.00 0.00 0.00 0.00 0.00 0.00 0.00 0.00 0.00 0.00 0.00 0.00 0.00 0.00 0.00 0.00 0.00 0.00 0.00 0.00 0.00 0.00 0.00 0.00 0.00 0.00 0.00 0.00 0.00 0.00 0.00 0.00 0.00 0.00 0.00 0.00 0.00 0.00 0.00 0.00 0.00 0.00 0.00 0.00 0.00
0.00 0.00 0.00 0.00 0.00 0.00 0.00 0.00 0.00 0.00 0.00 0.00 0.00 0.00 0.00 0.00 0.00 0.00 0.00 0.00 0.00 0.00 0.00 0.00 0.00 0.00 0.00 0.00 0.00 0.00 0.00 0.00 0.00 0.00 0.00 0.00 0.00 0.00 0.00 0.00 0.00 0.00 0.00 0.00 0.00 0.00 0.00
0.00 0.00 0.00 0.00 0.00 0.00 0.00 0.00 0.00 0.00 0.00 0.00 0.00 0.00 0.00 0.00 0.00 0.00 0.00 0.00 0.00 0.00 0.00 0.00 0.00 0.00 0.00 0.00 0.00 0.00 0.00 0.00 0.00 0.00 0.00 0.00 0.00 0.00 0.00 0.00 0.00 0.00 0.00 0.00 0.00 0.00 0.00
0.00 0.00 0.00 0.00 0.00 0.00 0.00 0.00 0.00 0.00 0.00 0.00 0.00 0.00 0.00 0.00 0.00 0.00 0.00 0.00 0.00 0.00 0.00 0.00 0.00 0.00 0.00 0.00 0.00 0.00 0.00 0.00 0.00 0.00 0.00 0.00 0.00 0.00 0.00 0.00 0.00 0.00 0.00 0.00 0.00 0.00 0.00
0.01 0.00 0.00 0.00 0.01 0.01 0.00 0.00 0.00 0.00 0.00 0.00 0.00 0.00 0.00 0.00 0.00 0.00 0.00 0.00 0.00 0.00 0.00 0.00 0.00 0.00 0.00 0.00 0.00 0.00 0.00 0.00 0.00 0.00 0.00 0.00 0.00 0.00 0.00 0.00 0.00 0.00 0.00 0.00 0.00 0.00 0.00
0.01 0.00 0.00 0.00 0.00 0.00 0.00 0.00 0.00 0.00 0.00 0.00 0.00 0.00 0.00 0.00 0.00 0.00 0.00 0.00 0.00 0.00 0.00 0.00 0.00 0.00 0.00 0.00 0.00 0.00 0.00 0.00 0.00 0.00 0.00 0.00 0.00 0.00 0.00 0.00 0.00 0.00 0.00 0.00 0.00 0.00 0.01
0.00 0.00 0.00 0.00 0.01 0.00 0.00 0.00 0.00 0.00 0.00 0.00 0.00 0.00 0.00 0.00 0.00 0.00 0.00 0.00 0.00 0.00 0.00 0.00 0.00 0.00 0.00 0.00 0.00 0.00 0.00 0.00 0.00 0.00 0.00 0.00 0.00 0.00 0.00 0.00 0.00 0.00 0.00 0.01 0.01 0.01 0.01
0.00 0.00 0.00 0.00 0.00 0.00 0.00 0.00 0.00 0.00 0.00 0.00 0.00 0.00 0.00 0.00 0.00 0.00 0.00 0.00 0.00 0.00 0.00 0.00 0.00 0.00 0.00 0.00 0.00 0.00 0.00 0.00 0.00 0.00 0.00 0.00 0.00 0.00 0.00 0.00 0.00 0.00 0.00 0.00 0.01 0.01 0.00
0.00 0.00 0.00 0.00 0.00 0.01 0.00 0.00 0.00 0.00 0.00 0.00 0.00 0.00 0.00 0.00 0.00 0.00 0.00 0.00 0.00 0.00 0.00 0.00 0.00 0.00 0.00 0.00 0.00 0.00 0.00 0.00 0.00 0.00 0.00 0.00 0.00 0.00 0.00 0.00 0.00 0.00 0.00 0.00 0.01 0.01 0.01
0.00 0.00 0.00 0.00 0.00 0.00 0.00 0.00 0.00 0.00 0.00 0.00 0.00 0.00 0.00 0.00 0.00 0.00 0.00 0.00 0.00 0.00 0.00 0.00 0.00 0.00 0.00 0.00 0.00 0.00 0.00 0.00 0.00 0.00 0.01 0.00 0.00 0.00 0.00 0.00 0.00 0.00 0.01 0.00 0.01 0.01 0.01
0.00 0.00 0.00 0.00 0.01 0.01 0.00 0.00 0.00 0.00 0.00 0.00 0.00 0.00 0.00 0.00 0.00 0.00 0.00 0.00 0.00 0.00 0.00 0.00 0.00 0.00 0.00 0.00 0.00 0.00 0.00 0.00 0.00 0.00 0.00 0.01 0.00 0.00 0.03 0.02 0.01 0.01 0.02 0.02 0.01 0.00 0.00
0.01 0.01 0.01 0.01 0.01 0.01 0.00 0.00 0.00 0.00 0.00 0.00 0.00 0.00 0.00 0.00 0.00 0.00 0.00 0.00 0.00 0.00 0.00 0.00 0.00 0.00 0.00 0.00 0.00 0.00 0.00 0.00 0.00 0.00 0.00 0.01 0.00 0.00 0.01 0.01 0.00 0.00 0.00 0.01 0.01 0.01 0.00
0.02 0.02 0.01 0.01 0.01 0.01 0.01 0.00 0.00 0.00 0.00 0.00 0.00 0.00 0.00 0.00 0.00 0.00 0.00 0.00 0.00 0.00 0.00 0.00 0.00 0.00 0.00 0.00 0.00 0.00 0.00 0.00 0.00 0.00 0.00 0.00 0.01 0.00 0.00 0.00 0.00 0.00 0.00 0.01 0.00 0.00 0.01
0.02 0.02 0.02 0.01 0.01 0.01 0.01 0.00 0.00 0.00 0.00 0.00 0.00 0.00 0.00 0.00 0.00 0.00 0.00 0.00 0.00 0.00 0.00 0.00 0.00 0.00 0.00 0.00 0.00 0.00 0.00 0.00 0.00 0.00 0.00 0.00 0.01 0.01 0.00 0.00 0.00 0.00 0.00 0.01 0.01 0.00 0.01
0.02 0.02 0.01 0.01 0.01 0.01 0.01 0.00 0.00 0.00 0.00 0.00 0.00 0.00 0.00 0.00 0.00 0.00 0.00 0.00 0.00 0.00 0.00 0.00 0.00 0.00 0.00 0.00 0.00 0.00 0.00 0.00 0.00 0.00 0.00 0.00 0.00 0.00 0.00 0.00 0.00 0.00 0.01 0.02 0.00 0.00 0.00
0.02 0.01 0.01 0.01 0.01 0.01 0.00 0.00 0.00 0.00 0.00 0.00 0.00 0.00 0.00 0.00 0.00 0.00 0.00 0.00 0.00 0.00 0.00 0.00 0.00 0.00 0.00 0.00 0.00 0.00 0.00 0.00 0.00 0.00 0.00 0.00 0.00 0.00 0.00 0.00 0.00 0.00 0.00 0.00 0.00 0.00 0.00
0.02 0.01 0.01 0.01 0.01 0.01 0.00 0.00 0.00 0.00 0.00 0.00 0.00 0.00 0.00 0.00 0.00 0.00 0.00 0.00 0.00 0.00 0.00 0.00 0.00 0.00 0.00 0.00 0.00 0.00 0.00 0.00 0.00 0.00 0.00 0.00 0.00 0.00 0.00 0.00 0.00 0.00 0.00 0.00 0.00 0.00 0.00
0.01 0.01 0.01 0.00 0.00 0.00 0.00 0.00 0.00 0.00 0.00 0.00 0.00 0.00 0.00 0.00 0.00 0.00 0.00 0.00 0.00 0.00 0.00 0.00 0.00 0.00 0.00 0.00 0.00 0.00 0.00 0.00 0.00 0.00 0.00 0.00 0.00 0.00 0.00 0.00 0.00 0.00 0.00 0.00 0.00 0.00 0.00
0.01 0.00 0.00 0.00 0.00 0.00 0.00 0.00 0.00 0.00 0.00 0.00 0.00 0.00 0.00 0.00 0.00 0.00 0.00 0.00 0.00 0.00 0.00 0.00 0.00 0.00 0.00 0.00 0.00 0.00 0.00 0.00 0.00 0.00 0.00 0.00 0.00 0.00 0.00 0.00 0.00 0.00 0.00 0.00 0.00 0.00 0.00
0.00 0.00 0.00 0.00 0.00 0.00 0.00 0.00 0.00 0.00 0.00 0.00 0.00 0.00 0.00 0.00 0.00 0.00 0.00 0.00 0.00 0.00 0.00 0.00 0.00 0.00 0.00 0.00 0.00 0.00 0.00 0.00 0.00 0.00 0.00 0.00 0.00 0.00 0.00 0.00 0.00 0.00 0.00 0.00 0.00 0.00 0.00
0.00 0.00 0.00 0.00 0.00 0.00 0.00 0.00 0.00 0.00 0.00 0.00 0.00 0.00 0.00 0.00 0.00 0.00 0.00 0.00 0.00 0.00 0.00 0.00 0.00 0.00 0.00 0.00 0.00 0.00 0.00 0.00 0.00 0.00 0.00 0.00 0.00 0.00 0.00 0.00 0.00 0.00 0.00 0.00 0.00 0.00 0.00
0.00 0.00 0.00 0.00 0.00 0.00 0.00 0.00 0.00 0.00 0.00 0.00 0.00 0.00 0.00 0.00 0.00 0.00 0.00 0.00 0.00 0.00 0.00 0.00 0.00 0.00 0.00 0.00 0.00 0.00 0.00 0.00 0.00 0.00 0.00 0.00 0.00 0.00 0.00 0.00 0.00 0.00 0.00 0.00 0.00 0.00 0.00
0.01 0.01 0.00 0.00 0.00 0.00 0.00 0.00 0.00 0.00 0.00 0.00 0.00 0.00 0.00 0.00 0.00 0.00 0.00 0.00 0.00 0.00 0.00 0.00 0.00 0.00 0.00 0.00 0.00 0.00 0.00 0.00 0.00 0.00 0.00 0.00 0.00 0.00 0.00 0.00 0.00 0.00 0.00 0.00 0.00 0.00 0.00
0.01 0.01 0.00 0.00 0.00 0.00 0.00 0.00 0.00 0.00 0.00 0.00 0.00 0.00 0.00 0.00 0.00 0.00 0.00 0.00 0.00 0.00 0.00 0.00 0.00 0.00 0.00 0.00 0.00 0.00 0.00 0.00 0.00 0.00 0.00 0.00 0.00 0.00 0.00 0.00 0.00 0.00 0.00 0.00 0.00 0.00 0.00
MSLP
1017.07 1017.60 1018.33 1018.33 1018.91 1019.18 1019.40 1019.85 1020.11 1020.27 1020.24 1020.52 1020.18 1020.21 1020.40 1020.31 1019.94 1019.57 1019.32 1019.03 1018.85 1018.84 1018.73 1018.51 1018.38 1018.02 1017.51 1017.02 1015.44 1014.25 1014.01 1013.71 1013.46 1013.53 1013.72 1013.75 1013.72 1013.68 1013.51 1013.38 1013.22 1011.91 1011.02 1010.23 1009.79 1009.26 1009.11
1016.28 1016.78 1017.52 1017.68 1018.06 1018.56 1018.92 1019.48 1019.86 1020.05 1019.94 1020.23 1020.42 1019.73 1020.05 1020.18 1019.95 1019.56 1019.32 1018.92 1018.48 1018.53 1018.39 1018.33 1018.19 1018.17 1018.12 1016.85 1014.46 1014.27 1014.32 1013.98 1013.73 1013.65 1013.63 1013.65 1013.77 1013.59 1013.73 1013.20 1013.35 1012.33 1011.36 1010.69 1009.67 1009.23 1009.30
1015.48 1015.91 1016.62 1017.11 1017.62 1017.94 1018.47 1018.88 1019.19 1019.62 1019.81 1020.17 1020.10 1020.03 1019.52 1019.86 1019.75 1019.39 1019.16 1018.69 1018.01 1017.93 1017.82 1017.84 1017.88 1018.06 1018.01 1015.79 1014.24 1014.20 1014.23 1013.82 1013.49 1013.42 1013.44 1013.27 1013.29 1013.55 1013.74 1013.37 1012.87 1012.60 1012.13 1010.87 1009.68 1009.88 1009.41
1014.38 1014.96 1015.62 1016.30 1016.55 1017.39 1017.85 1018.27 1018.75 1018.94 1019.46 1019.69 1019.88 1019.66 1019.45 1019.47 1019.47 1019.18 1018.85 1018.28 1017.68 1017.17 1016.91 1017.01 1017.50 1017.97 1016.84 1014.57 1014.40 1014.44 1013.88 1013.44 1013.13 1013.04 1012.92 1012.55 1012.70 1013.05 1013.43 1013.38 1012.96 1012.92 1012.92 1011.21 1009.29 1010.09 1009.84
1013.39 1013.85 1014.58 1015.13 1015.85 1016.46 1017.13 1017.89 1018.14 1018.61 1019.18 1019.51 1019.44 1019.29 1019.26 1019.22 1019.10 1018.96 1018.55 1017.72 1016.98 1016.66 1016.68 1016.90 1017.69 1017.62 1016.17 1014.39 1014.08 1013.70 1013.62 1013.48 1013.27 1012.81 1012.45 1012.38 1012.32 1012.62 1013.10 1013.25 1013.19 1012.72 1012.26 1011.97 1009.97 1010.33 1009.93
1012.34 1012.63 1013.42 1014.22 1015.00 1015.68 1016.42 1017.15 1017.41 1018.02 1018.60 1019.01 1019.18 1019.05 1018.84 1018.87 1018.96 1018.70 1018.09 1017.14 1016.55 1016.64 1017.06 1017.19 1017.18 1017.69 1015.82 1014.63 1014.14 1013.78 1013.09 1013.03 1013.09 1012.85 1012.75 1012.47 1012.69 1013.00 1013.09 1013.63 1013.33 1013.19 1013.03 1012.49 1011.49 1010.43 1010.08
1011.11 1011.93 1012.20 1013.16 1014.12 1014.93 1015.85 1016.46 1017.30 1017.83 1018.10 1018.46 1019.10 1018.74 1018.71 1018.64 1018.60 1018.40 1018.04 1017.13 1017.09 1017.08 1017.22 1017.18 1017.12 1016.89 1015.66 1014.76 1014.00 1013.44 1012.72 1012.74 1012.79 1013.09 1013.31 1013.16 1013.40 1013.34 1013.02 1013.21 1013.08 1013.09 1012.77 1011.75 1010.74 1010.77 1009.74
1009.38 1010.67 1011.28 1011.98 1013.02 1014.13 1014.99 1016.13 1016.42 1017.23 1017.90 1018.26 1018.65 1018.68 1018.67 1018.60 1018.63 1018.02 1018.21 1018.53 1018.30 1018.77 1018.06 1016.75 1016.69 1016.71 1015.48 1015.02 1014.36 1013.12 1012.87 1013.29 1012.97 1013.11 1013.21 1013.55 1012.61 1012.46 1012.36 1012.40 1012.30 1012.12 1011.91 1010.95 1009.90 1009.78 1009.76
1008.14 1009.16 1009.83 1010.91 1012.12 1013.12 1014.63 1015.08 1016.58 1017.25 1017.20 1018.26 1018.46 1018.52 1018.32 1018.45 1018.52 1018.52 1018.32 1018.78 1018.62 1018.37 1018.73 1016.62 1015.82 1015.34 1014.33 1014.52 1013.91 1013.04 1012.90 1012.87 1012.89 1012.90 1013.19 1013.32 1011.82 1011.63 1012.03 1011.75 1011.60 1010.86 1011.21 1010.65 1010.19 1009.33 1008.65
1006.98 1007.59 1008.74 1009.85 1011.08 1012.03 1013.67 1014.88 1015.78 1016.93 1017.13 1017.70 1018.56 1018.43 1018.56 1017.91 1018.71 1018.82 1018.78 1018.83 1018.70 1018.43 1018.12 1016.25 1015.04 1014.05 1013.83 1013.69 1013.54 1012.68 1012.74 1013.20 1013.16 1013.05 1012.95 1012.48 1011.33 1011.10 1011.09 1010.81 1010.91 1010.15 1010.05 1010.03 1009.72 1009.41 1008.33
1005.72 1006.09 1007.29 1008.90 1009.93 1011.19 1012.68 1014.21 1015.70 1016.43 1017.10 1017.46 1017.75 1018.46 1018.19 1018.29 1018.26 1018.50 1018.94 1018.69 1019.00 1018.69 1017.29 1015.54 1014.46 1013.68 1013.94 1014.41 1014.21 1013.08 1012.78 1012.86 1013.06 1012.93 1013.37 1011.76 1011.21 1011.02 1010.71 1009.76 1009.88 1009.26 1008.92 1009.04 1008.88 1008.95 1008.84
1003.45 1005.01 1005.81 1007.56 1008.68 1010.97 1012.31 1013.16 1015.05 1016.18 1016.94 1017.20 1017.75 1017.79 1018.27 1017.92 1018.46 1018.32 1018.35 1018.45 1019.04 1018.86 1016.79 1015.37 1014.76 1014.71 1014.85 1014.56 1014.35 1013.66 1013.28 1013.02 1012.65 1012.70 1012.35 1011.51 1010.74 1010.46 1009.28 1008.49 1008.83 1008.40 1008.32 1008.27 1008.45 1008.52 1007.83
1001.45 1003.12 1004.46 1006.33 1007.86 1009.97 1011.96 1013.55 1013.90 1015.54 1016.70 1017.06 1017.49 1017.96 1017.83 1017.49 1017.99 1018.11 1018.34 1018.68 1019.19 1018.01 1016.65 1016.17 1015.84 1015.72 1015.93 1015.76 1015.05 1014.72 1014.38 1013.92 1013.84 1013.47 1012.59 1011.23 1009.82 1009.25 1008.67 1008.68 1007.99 1008.16 1008.56 1008.47 1008.08 1007.76 1006.43
999.12 1001.49 1003.21 1004.76 1006.88 1009.11 1010.76 1012.99 1013.83 1015.06 1016.10 1016.86 1017.02 1017.67 1017.35 1017.17 1017.55 1017.99 1018.39 1018.70 1018.39 1017.15 1016.63 1016.41 1016.43 1016.64 1016.87 1016.80 1016.21 1015.99 1015.35 1014.72 1014.21 1014.11 1013.35 1011.76 1009.08 1008.25 1007.76 1007.49 1007.36 1007.62 1008.06 1008.10 1007.24 1006.45 1005.79
997.18 1000.00 1002.38 1003.88 1005.92 1008.35 1010.12 1012.15 1013.25 1014.68 1015.99 1016.35 1016.71 1017.34 1017.22 1016.87 1017.40 1018.00 1018.46 1018.14 1017.14 1016.79 1016.49 1016.65 1016.99 1017.21 1017.42 1017.32 1017.35 1016.68 1016.27 1015.42 1014.69 1014.52 1014.13 1012.17 1010.13 1008.04 1007.34 1006.43 1007.06 1006.63 1006.93 1006.39 1007.11 1006.30 1005.98
996.16 999.24 1001.73 1003.47 1005.63 1007.70 1009.92 1011.54 1012.67 1014.16 1015.55 1015.87 1016.05 1016.66 1016.91 1016.72 1017.21 1017.97 1018.18 1017.43 1016.78 1016.22 1016.25 1016.64 1017.33 1017.90 1018.39 1018.31 1017.96 1017.49 1016.69 1015.37 1014.91 1014.16 1013.69 1012.38 1010.79 1008.03 1006.64 1006.32 1006.60 1006.57 1006.44 1006.43 1006.64 1006.46 1006.34
995.58 998.51 1000.59 1002.96 1005.20 1007.49 1009.56 1011.42 1012.77 1013.73 1015.08 1015.22 1015.29 1016.27 1016.51 1016.86 1017.26 1018.00 1017.89 1017.18 1016.36 1016.02 1016.11 1016.68 1017.44 1018.11 1018.84 1019.20 1019.03 1018.63 1017.58 1015.73 1014.93 1013.92 1013.49 1012.25 1011.48 1008.42 1006.99 1006.94 1007.31 1006.81 1006.30 1006.40 1006.37 1006.37 1007.11
995.85 997.90 1000.12 1002.62 1004.87 1007.36 1009.09 1011.62 1012.56 1013.32 1014.13 1014.67 1015.11 1016.12 1016.39 1017.04 1017.67 1018.18 1017.68 1016.77 1016.04 1016.03 1016.09 1016.47 1017.04 1017.89 1018.55 1019.04 1019.38 1019.06 1018.37 1016.38 1014.61 1014.09 1013.16 1012.07 1011.16 1009.51 1007.99 1006.92 1007.01 1007.27 1006.77 1006.15 1005.95 1006.55 1007.40
996.76 998.44 1000.43 1002.89 1005.51 1007.60 1009.46 1011.33 1012.26 1012.64 1013.41 1013.98 1014.78 1016.21 1016.62 1016.71 1017.44 1017.84 1017.29 1016.65 1016.13 1016.10 1016.23 1016.50 1016.95 1017.57 1018.31 1019.12 1019.34 1018.82 1017.81 1015.51 1014.58 1014.16 1013.04 1012.38 1011.14 1009.87 1008.21 1007.67 1007.47 1007.21 1006.56 1006.28 1006.40 1006.81 1007.73
997.94 999.65 1002.35 1003.97 1005.69 1007.88 1010.12 1011.11 1011.78 1012.72 1013.01 1013.08 1014.51 1016.13 1017.03 1017.12 1017.22 1017.06 1017.15 1016.84 1016.47 1016.12 1016.31 1016.40 1016.72 1017.19 1018.27 1018.80 1018.77 1018.72 1017.55 1015.68 1014.30 1013.88 1013.09 1012.53 1011.79 1011.10 1010.26 1009.25 1008.77 1007.81 1006.84 1006.73 1007.12 1007.46 1008.22
999.84 1001.62 1003.60 1004.61 1006.99 1008.56 1010.06 1011.02 1011.97 1012.09 1012.66 1013.10 1014.39 1015.30 1015.48 1016.77 1017.22 1016.93 1016.87 1016.84 1016.64 1016.47 1016.24 1016.28 1016.56 1017.18 1018.09 1018.32 1018.31 1018.13 1016.91 1015.99 1014.25 1013.67 1013.08 1012.82 1012.07 1011.69 1011.20 1010.50 1009.61 1009.13 1008.21 1007.72 1008.40 1009.14 1010.00
1002.49 1003.38 1004.63 1006.24 1007.75 1009.10 1010.26 1010.99 1011.44 1012.16 1012.67 1013.20 1014.44 1015.04 1015.53 1015.97 1016.37 1016.76 1016.92 1016.89 1016.71 1016.53 1016.36 1016.33 1016.66 1017.10 1017.30 1017.73 1017.81 1017.06 1016.83 1016.08 1015.18 1013.81 1013.49 1013.06 1012.59 1012.05 1011.62 1011.36 1011.03 1010.84 1010.63 1010.05 1010.41 1011.68 1012.47
1003.86 1004.87 1006.01 1007.10 1008.28 1009.32 1010.15 1011.26 1011.80 1012.15 1012.59 1013.36 1014.29 1014.48 1014.65 1016.38 1016.71 1016.97 1016.89 1016.60 1016.51 1016.43 1016.33 1016.44 1016.72 1016.84 1016.81 1016.70 1016.63 1015.95 1015.49 1015.08 1014.84 1014.58 1014.01 1013.22 1012.72 1012.14 1011.98 1011.60 1011.83 1012.40 1013.70 1013.11 1013.09 1013.56 1013.89
1005.12 1006.19 1007.06 1007.89 1008.80 1009.75 1010.77 1011.37 1011.83 1012.29 1012.47 1013.18 1014.12 1014.63 1015.26 1016.76 1016.67 1016.59 1016.39 1016.41 1016.59 1016.59 1016.50 1016.92 1016.71 1016.68 1016.40 1016.07 1015.60 1014.37 1014.18 1014.03 1014.00 1013.31 1013.35 1012.79 1012.57 1012.14 1011.97 1012.12 1013.46 1015.40 1015.67 1015.56 1015.43 1015.85 1015.95
1006.28 1007.06 1007.79 1008.55 1009.35 1010.23 1011.01 1011.59 1011.98 1012.22 1012.57 1013.22 1014.09 1014.59 1015.45 1016.85 1016.89 1016.56 1016.55 1016.79 1016.94 1016.91 1017.28 1017.20 1016.87 1016.81 1016.76 1016.43 1016.24 1015.12 1014.33 1013.91 1013.53 1012.73 1012.55 1012.46 1012.52 1012.33 1012.32 1013.24 1015.12 1015.87 1016.74 1017.01 1016.73 1017.61 1017.81
1006.82 1007.63 1008.29 1008.98 1009.73 1010.62 1011.35 1011.86 1012.16 1012.56 1012.90 1013.20 1014.47 1014.63 1015.31 1016.50 1017.44 1016.84 1016.93 1017.02 1017.41 1017.81 1017.88 1017.48 1017.11 1017.02 1016.99 1017.33 1017.00 1016.47 1015.55 1014.96 1014.01 1013.15 1012.65 1012.57 1012.92 1013.11 1013.12 1014.21 1015.86 1017.32 1017.34 1017.23 1017.29 1018.38 1019.15
1007.56 1008.16 1008.65 1009.39 1010.33 1011.11 1011.69 1012.15 1012.49 1012.89 1013.11 1013.51 1015.07 1014.95 1015.48 1016.99 1017.37 1017.02 1016.98 1017.11 1017.57 1018.17 1018.30 1018.42 1018.22 1017.75 1017.56 1018.13 1017.95 1017.51 1016.58 1015.73 1015.10 1014.47 1013.94 1013.66 1013.90 1014.46 1014.63 1015.53 1017.16 1018.21 1017.71 1017.34 1018.20 1020.23 1019.86
1007.99 1008.68 1009.35 1010.07 1010.79 1011.45 1012.13 1012.50 1012.87 1013.24 1013.51 1013.97 1015.72 1015.40 1015.61 1017.16 1017.59 1017.18 1016.91 1017.14 1017.72 1018.03 1018.60 1018.63 1019.01 1018.61 1018.64 1019.11 1019.10 1018.48 1017.70 1016.68 1016.12 1015.49 1015.15 1015.28 1015.47 1016.09 1016.25 1017.02 1018.58 1018.75 1018.06 1018.64 1020.03 1020.35 1020.59
1008.49 1009.17 1009.97 1010.66 1011.30 1011.96 1012.50 1012.95 1013.34 1013.73 1014.00 1014.21 1015.78 1015.88 1015.84 1016.91 1017.82 1017.60 1017.14 1017.04 1016.91 1017.34 1017.93 1018.72 1019.18 1019.11 1019.26 1019.77 1019.83 1019.31 1018.52 1017.63 1016.84 1016.04 1015.82 1016.38 1016.93 1017.33 1018.23 1019.17 1019.94 1020.02 1020.12 1020.37 1020.58 1020.76 1020.91
Thickness
5609 5603 5597 5601 5596 5595 5593 5589 5586 5585 5586 5583 5584 5583 5581 5581 5584 5587 5589 5592 5592 5591 5591 5592 5591 5592 5597 5598 5604 5617 5616 5617 5616 5613 5608 5604 5602 5600 5598 5599 5597 5607 5622 5629 5631 5636 5630
5606 5603 5596 5598 5595 5590 5589 5584 5581 5579 5581 5578 5575 5579 5575 5574 5576 5580 5581 5585 5587 5586 5586 5586 5585 5584 5583 5588 5608 5608 5606 5605 5603 5600 5597 5595 5591 5591 5583 5587 5579 5590 5600 5606 5622 5623 5612
5602 5599 5594 5593 5590 5588 5584 5581 5579 5576 5573 5570 5570 5569 5572 5569 5570 5574 5575 5579 5583 5582 5583 5582 5581 5578 5573 5583 5599 5598 5596 5596 5595 5593 5588 5588 5584 5578 5572 5568 5571 5571 5568 5588 5609 5596 5593
5600 5595 5592 5588 5589 5582 5579 5577 5574 5574 5568 5566 5563 5566 5567 5565 5564 5567 5570 5574 5578 5580 5582 5579 5574 5569 5570 5591 5588 5585 5588 5590 5590 5585 5583 5582 5576 5568 5558 5551 5549 5547 5533 5549 5599 5571 5572
5591 5593 5588 5587 5582 5578 5575 5570 5570 5566 5562 5559 5560 5563 5562 5561 5562 5562 5564 5569 5574 5575 5574 5570 5563 5562 5564 5582 5580 5579 5579 5579 5578 5577 5576 5572 5565 5554 5541 5522 5511 5521 5502 5505 5536 5548 5537
5584 5586 5583 5580 5577 5573 5569 5566 5566 5561 5558 5556 5555 5556 5558 5556 5554 5555 5558 5564 5567 5565 5560 5558 5558 5553 5567 5575 5571 5568 5574 5571 5565 5562 5556 5551 5537 5519 5501 5479 5477 5479 5465 5461 5466 5511 5506
5578 5574 5579 5572 5571 5566 5561 5560 5555 5553 5551 5550 5546 5549 5550 5549 5548 5548 5548 5553 5552 5555 5547 5555 5553 5549 5556 5562 5563 5563 5568 5565 5556 5546 5527 5523 5501 5477 5481 5470 5467 5459 5455 5458 5475 5472 5481
5575 5568 5567 5567 5563 5559 5554 5548 5550 5545 5542 5541 5539 5540 5541 5541 5538 5542 5538 5532 5534 5530 5527 5543 5541 5539 5549 5551 5548 5557 5558 5545 5541 5522 5512 5495 5489 5493 5483 5472 5467 5464 5457 5463 5476 5478 5466
5565 5562 5562 5557 5554 5551 5543 5545 5537 5535 5535 5529 5529 5530 5532 5533 5530 5529 5529 5522 5521 5525 5511 5534 5545 5547 5554 5546 5548 5547 5545 5535 5520 5507 5492 5475 5492 5491 5474 5470 5464 5469 5454 5456 5451 5469 5473
5552 5555 5552 5548 5546 5545 5538 5535 5533 5527 5521 5522 5516 5520 5520 5529 5522 5517 5516 5512 5512 5515 5508 5544 5549 5549 5549 5545 5538 5541 5533 5517 5504 5494 5491 5480 5489 5482 5472 5470 5465 5455 5474 5460 5458 5451 5447
5540 5547 5543 5536 5538 5535 5530 5527 5520 5518 5514 5512 5514 5507 5512 5514 5514 5513 5508 5508 5502 5506 5530 5541 5541 5544 5536 5528 5526 5523 5521 5510 5495 5493 5486 5488 5484 5474 5467 5473 5473 5471 5479 5472 5472 5464 5447
5537 5532 5533 5530 5528 5518 5518 5520 5510 5508 5505 5503 5501 5502 5501 5508 5504 5505 5504 5503 5497 5500 5524 5527 5529 5521 5516 5517 5513 5512 5505 5505 5504 5493 5485 5486 5491 5481 5483 5491 5481 5485 5481 5478 5471 5461 5453
5532 5526 5523 5518 5516 5511 5507 5503 5506 5500 5494 5491 5490 5490 5495 5501 5498 5497 5496 5494 5495 5498 5521 5515 5509 5510 5503 5496 5496 5493 5486 5489 5485 5484 5487 5493 5495 5487 5492 5483 5491 5485 5473 5450 5463 5432 5476
5532 5521 5516 5513 5506 5502 5501 5491 5492 5489 5486 5484 5485 5483 5489 5495 5493 5490 5488 5487 5498 5511 5507 5512 5507 5496 5484 5483 5481 5472 5476 5472 5484 5474 5475 5472 5501 5506 5505 5498 5496 5487 5480 5473 5471 5498 5516
5532 5516 5506 5505 5498 5492 5489 5483 5482 5478 5474 5477 5476 5476 5482 5488 5484 5482 5478 5471 5501 5501 5507 5499 5493 5480 5472 5477 5468 5466 5465 5471 5476 5471 5468 5479 5478 5510 5509 5513 5502 5505 5490 5508 5484 5508 5509
5523 5507 5498 5493 5486 5484 5476 5475 5474 5471 5465 5468 5471 5472 5475 5478 5477 5473 5468 5494 5497 5506 5503 5496 5476 5473 5445 5459 5453 5460 5461 5477 5472 5477 5477 5479 5480 5510 5519 5517 5510 5507 5508 5502 5494 5502 5473
5513 5500 5495 5484 5479 5474 5468 5463 5461 5460 5455 5461 5467 5465 5468 5465 5467 5462 5459 5480 5498 5500 5497 5486 5464 5458 5459 5435 5439 5432 5449 5464 5475 5477 5471 5482 5470 5507 5520 5511 5499 5503 5505 5506 5510 5503 5483
5499 5494 5486 5479 5473 5465 5460 5447 5450 5453 5452 5454 5457 5453 5459 5455 5449 5435 5455 5478 5497 5489 5489 5483 5477 5463 5445 5428 5439 5430 5429 5455 5473 5473 5465 5483 5480 5483 5510 5515 5507 5501 5508 5515 5502 5507 5506
5480 5477 5473 5467 5459 5452 5446 5441 5442 5447 5447 5449 5449 5444 5447 5451 5440 5441 5467 5481 5485 5481 5479 5476 5472 5462 5443 5417 5425 5421 5421 5458 5466 5466 5471 5474 5489 5488 5507 5509 5503 5497 5507 5518 5511 5506 5503
5463 5462 5449 5451 5452 5442 5432 5434 5437 5436 5441 5449 5440 5432 5435 5438 5439 5457 5463 5468 5469 5476 5470 5473 5469 5461 5445 5425 5431 5418 5423 5453 5465 5463 5473 5473 5479 5478 5481 5490 5490 5496 5508 5516 5505 5505 5493
5442 5449 5444 5446 5434 5430 5427 5427 5427 5432 5435 5439 5433 5433 5445 5432 5436 5450 5456 5458 5460 5457 5469 5467 5464 5456 5443 5419 5426 5421 5435 5442 5460 5465 5470 5467 5469 5472 5471 5472 5478 5479 5493 5510 5505 5490 5487
5426 5430 5431 5429 5424 5419 5416 5416 5421 5423 5426 5430 5425 5432 5433 5441 5449 5449 5450 5449 5452 5459 5461 5460 5453 5445 5444 5435 5430 5435 5436 5437 5440 5456 5458 5466 5463 5466 5473 5464 5467 5463 5467 5472 5483 5472 5463
5412 5414 5415 5415 5412 5411 5412 5408 5412 5417 5421 5422 5423 5430 5438 5430 5437 5436 5435 5450 5451 5454 5458 5452 5445 5442 5441 5438 5436 5441 5445 5447 5450 5447 5446 5457 5463 5474 5476 5487 5477 5468 5445 5451 5457 5455 5464
5399 5399 5401 5402 5402 5401 5399 5402 5406 5410 5417 5421 5420 5423 5428 5418 5434 5441 5447 5452 5446 5449 5448 5440 5441 5439 5442 5440 5437 5450 5447 5446 5449 5456 5458 5460 5465 5474 5481 5479 5464 5433 5429 5439 5440 5435 5442
5384 5387 5389 5392 5392 5392 5392 5394 5399 5406 5413 5415 5415 5422 5422 5409 5426 5439 5441 5438 5436 5436 5434 5435 5436 5435 5428 5431 5430 5446 5449 5458 5465 5473 5473 5469 5465 5475 5483 5468 5447 5437 5425 5422 5435 5424 5420
5377 5378 5380 5383 5383 5382 5384 5388 5395 5401 5405 5411 5410 5418 5420 5417 5415 5429 5425 5430 5419 5416 5417 5427 5426 5422 5421 5415 5420 5425 5436 5444 5450 5458 5471 5466 5456 5460 5470 5466 5453 5420 5419 5427 5430 5426 5408
5365 5368 5373 5375 5374 5375 5378 5384 5390 5394 5399 5406 5403 5413 5414 5403 5410 5420 5418 5420 5415 5407 5405 5403 5407 5410 5411 5393 5402 5408 5412 5436 5437 5438 5443 5446 5445 5441 5451 5452 5429 5407 5414 5426 5440 5412 5405
5360 5361 5364 5365 5367 5370 5374 5380 5385 5388 5393 5400 5395 5406 5410 5399 5404 5414 5420 5414 5405 5400 5391 5398 5388 5391 5388 5383 5393 5394 5401 5420 5422 5430 5430 5427 5432 5423 5435 5429 5416 5401 5419 5421 5403 5398 5398
5354 5356 5357 5359 5362 5365 5370 5375 5378 5382 5388 5396 5391 5398 5405 5402 5400 5402 5409 5411 5412 5405 5393 5386 5386 5389 5383 5372 5374 5378 5390 5400 5412 5425 5427 5417 5410 5413 5408 5400 5392 5396 5396 5394 5393 5393 5397